Dalhart, TX

9:33 AM CDT on April 23, 2017 (GMT -0500)
Dalhart Municipal

Weather History for KDHT - November, 2013

Change the Weather History Date:

Monday, November 18, 2013

  Actual Average Record
Temperature  
Mean Temperature 41 °F 43 °F  
Max Temperature 55 °F 59 °F 80 °F (1986)
Min Temperature 26 °F 27 °F 10 °F (1961)
Degree Days  
Heating Degree Days 24 22  
Month to date heating degree days 299 331  
Since 1 July heating degree days 602 691  
Cooling Degree Days 0 0  
Month to date cooling degree days 0 0  
Year to date cooling degree days 1576 1138  
Moisture  
Dew Point 18 °F    
Average Humidity 47    
Maximum Humidity 75    
Minimum Humidity 18    
Precipitation  
Precipitation 0.00 in 0.01 in 0.28 in (1972)
Month to date precipitation 0.40 0.41  
Year to date precipitation 7.18 16.88  
Snow  
Snow 0.00 in 0.10 in 5.00 in (1972)
Month to date snowfall 0.0 0.6  
Since 1 July snowfall T 1.2  
Since 1 September snowfall T 1.2  
Snow Depth 0.00 in    
Sea Level Pressure  
Sea Level Pressure 30.18 in    
Wind  
Wind Speed 7 mph (SSW)    
Max Wind Speed 17 mph    
Max Gust Speed 24 mph    
Visibility 10 miles    
Events      
T = Trace of Precipitation, MM = Missing Value Source: NWS Daily Summary

Daily Weather History Graph

Daily Weather History Graph

Search for Another Location

Airport or City:

Trip Planner

Search our weather history database for the weather conditions in past years. The results will help you decide how hot, cold, wet, or windy it might be!

Date:

Astronomy

Nov. 18, 2013 Rise Set
Actual Time 7:30 AM CST 5:40 PM CST
Civil Twilight 7:02 AM CST 6:08 PM CST
Nautical Twilight 6:31 AM CST 6:39 PM CST
Astronomical Twilight 6:00 AM CST 7:09 PM CST
Moon 6:45 PM CST (11/18) 8:20 AM CST (11/18)
Length of Visible Light 11h 05m
Length of Day
10h 10m
Full, 99% of the Moon is Illuminated
Nov 18
Full
Nov 25
Last Quarter
Dec 2
New
Dec 9
First Quarter
Dec 17
Full

Hourly Weather History & Observations

Time (CST) Temp. Windchill Dew Point Humidity Pressure Visibility Wind Dir Wind Speed Gust Speed Precip Events Conditions
12:53 AM 37.0 °F 31.6 °F 21.0 °F 52% 30.11 in 10.0 mi NE 6.9 mph - N/A   Clear
1:53 AM 34.0 °F 31.0 °F 21.0 °F 59% 30.13 in 10.0 mi NNW 3.5 mph - N/A   Clear
2:53 AM 32.0 °F 26.4 °F 19.9 °F 61% 30.14 in 10.0 mi NNW 5.8 mph - N/A   Clear
3:53 AM 30.0 °F 23.2 °F 19.0 °F 64% 30.15 in 10.0 mi NNW 6.9 mph - N/A   Clear
4:53 AM 30.0 °F 23.2 °F 19.0 °F 64% 30.17 in 10.0 mi NNW 6.9 mph - N/A   Clear
5:53 AM 27.0 °F - 19.0 °F 72% 30.22 in 10.0 mi Calm Calm - N/A   Clear
6:53 AM 27.0 °F 19.5 °F 18.0 °F 69% 30.24 in 10.0 mi NNW 6.9 mph - N/A   Clear
7:53 AM 27.0 °F 20.5 °F 18.0 °F 69% 30.27 in 10.0 mi NNW 5.8 mph - N/A   Clear
8:53 AM 34.0 °F 31.0 °F 19.9 °F 56% 30.27 in 10.0 mi NNW 3.5 mph - N/A   Clear
9:53 AM 39.9 °F - 21.0 °F 47% 30.27 in 10.0 mi Calm Calm - N/A   Clear
10:53 AM 45.0 °F 40.6 °F 16.0 °F 31% 30.28 in 10.0 mi South 8.1 mph - N/A   Clear
11:53 AM 50.0 °F - 10.9 °F 21% 30.25 in 10.0 mi South 11.5 mph - N/A   Clear
12:53 PM 54.0 °F - 10.0 °F 17% 30.21 in 10.0 mi South 17.3 mph - N/A   Clear
1:53 PM 55.0 °F - 12.0 °F 18% 30.18 in 10.0 mi South 13.8 mph - N/A   Clear
2:53 PM 53.1 °F - 12.0 °F 20% 30.17 in 10.0 mi South 10.4 mph - N/A   Clear
3:53 PM 53.1 °F - 15.1 °F 22% 30.14 in 10.0 mi South 8.1 mph - N/A   Clear
4:53 PM 51.1 °F - 19.0 °F 28% 30.14 in 10.0 mi SSW 9.2 mph - N/A   Clear
5:53 PM 46.0 °F 43.1 °F 19.9 °F 35% 30.16 in 10.0 mi SW 5.8 mph - N/A   Clear
6:53 PM 45.0 °F 42.6 °F 21.0 °F 39% 30.17 in 10.0 mi SSW 4.6 mph - N/A   Clear
7:53 PM 43.0 °F 40.3 °F 21.0 °F 42% 30.16 in 10.0 mi South 4.6 mph - N/A   Clear
8:53 PM 39.9 °F 34.5 °F 21.0 °F 47% 30.15 in 10.0 mi South 8.1 mph - N/A   Clear
9:53 PM 37.0 °F 33.3 °F 21.9 °F 54% 30.14 in 10.0 mi SSW 4.6 mph - N/A   Clear
10:53 PM 41.0 °F 35.8 °F 19.9 °F 43% 30.12 in 10.0 mi South 8.1 mph - N/A   Clear
11:53 PM 41.0 °F 35.2 °F 19.0 °F 41% 30.10 in 10.0 mi South 9.2 mph - N/A   Clear